FW0765 Weather Reports


Display with metric or nautical units.
time (UTC)temp
F
wind
direction
speed
MPH
gust
MPH
rain 1hr
in
rain 24hr
in
rain mn
in
humidity
%
barometer
mb
20260509181525 80 200 5.0 11.0 0.00 0.00 0.00 65 1010.3
20260509180023 80 220 7.0 11.0 0.00 0.00 0.00 68 1010.8
20260509174520 79 185 4.0 9.0 0.00 0.00 0.00 71 1010.9
20260509173019 78 217 2.0 10.0 0.00 0.00 0.00 76 1011.1
20260509171513 77 265 2.0 7.0 0.00 0.00 0.00 79 1011.2
20260509170013 75 202 3.0 7.0 0.00 0.00 0.00 82 1011.1
20260509164504 73 226 3.0 8.0 0.00 0.00 0.00 86 1011.3
20260509163100 71 215 5.0 10.0 0.00 0.00 0.00 89 1011.4
20260509161557 69 206 6.0 10.0 0.00 0.00 0.00 92 1011.4
20260509160051 67 195 6.0 12.0 0.00 0.00 0.00 95 1011.4
20260509154548 67 205 3.0 7.0 0.00 0.00 0.00 96 1011.7
20260509153059 65 211 4.0 7.0 0.00 0.00 0.00 96 1011.7
20260509151548 64 182 3.0 8.0 0.00 0.00 0.00 95 1012.0
20260509150046 64 175 2.0 3.0 0.00 0.00 0.00 96 1012.3
20260509144538 64 103 1.0 3.0 0.00 0.00 0.00 95 1012.1
20260509143037 63 93 0.0 2.0 0.00 0.00 0.00 96 1012.1
20260509141535 63 93 1.0 2.0 0.00 0.00 0.00 95 1012.0
20260509140040 62 93 1.0 4.0 0.00 0.00 0.00 95 1011.8
20260509134534 62 105 3.0 6.0 0.00 0.00 0.00 95 1011.5
20260509133032 62 118 2.0 4.0 0.00 0.00 0.00 95 1011.5
20260509131535 62 168 3.0 6.0 0.00 0.00 0.00 95 1011.5
20260509130030 62 184 0.0 3.0 0.00 0.00 0.00 95 1011.3
20260509124529 61 184 0.0 3.0 0.00 0.00 0.00 95 1011.0
20260509123027 61 184 0.0 4.0 0.00 0.00 0.00 95 1010.8
20260509121526 61 184 3.0 8.0 0.00 0.00 0.00 95 1010.5
20260509120027 60 161 5.0 8.0 0.00 0.00 0.00 94 1010.6
20260509114523 60 125 3.0 6.0 0.00 0.00 0.00 94 1010.7
20260509113023 60 121 3.0 6.0 0.00 0.00 0.00 95 1011.1
20260509111523 59 106 2.0 4.0 0.00 0.00 0.00 94 1010.8
20260509110022 59 92 0.0 2.0 0.00 0.00 0.00 94 1010.7
20260509104522 59 92 0.0 1.0 0.00 0.00 0.00 94 1010.9
20260509103021 60 91 1.0 4.0 0.00 0.00 0.00 94 1010.8
20260509101520 59 78 0.0 4.0 0.00 0.00 0.00 94 1011.5
20260509100020 59 79 0.0 3.0 0.00 0.00 0.00 94 1011.2
20260509094525 59 78 1.0 4.0 0.00 0.00 0.00 94 1010.7
20260509093020 59 76 0.0 0.0 0.00 0.00 0.00 93 1010.7
20260509091518 59 76 0.0 0.0 0.00 0.00 0.00 93 1011.0
20260509090017 59 76 0.0 2.0 0.00 0.00 0.00 93 1010.7
20260509084515 59 64 0.0 2.0 0.00 0.01 0.00 93 1010.7
20260509083014 60 63 0.0 1.0 0.00 0.01 0.00 93 1010.8
20260509081516 60 63 0.0 3.0 0.00 0.01 0.00 93 1011.0
20260509080013 60 63 0.0 0.0 0.00 0.01 0.00 93 1011.7
20260509074511 61 168 4.0 7.0 0.00 0.02 0.00 93 1011.3
20260509073020 61 169 0.0 3.0 0.00 0.02 0.00 93 1010.5
20260509071507 60 169 1.0 2.0 0.00 0.02 0.00 92 1009.9
20260509070004 61 169 0.0 1.0 0.00 0.02 0.00 92 1009.9
20260509064502 61 169 0.0 3.0 0.00 0.02 0.00 92 1009.7
20260509063001 61 169 2.0 5.0 0.00 0.02 0.00 92 1009.7
20260509061602 61 169 2.0 3.0 0.00 0.02 0.00 92 1009.8
20260509060105 62 169 1.0 5.0 0.00 0.02 0.00 92 1009.6
20260509054611 62 169 2.0 5.0 0.00 0.02 0.00 91 1009.5
20260509053057 62 169 1.0 3.0 0.00 0.02 0.00 91 1009.3
20260509051553 63 169 1.0 3.0 0.00 0.02 0.00 91 1009.3
20260509050056 63 167 0.0 3.0 0.00 0.02 0.00 91 1009.3
20260509044548 63 165 2.0 4.0 0.00 0.02 0.02 90 1009.4
20260509043048 64 184 1.0 3.0 0.00 0.02 0.02 89 1009.5
20260509041546 64 201 1.0 4.0 0.00 0.02 0.02 89 1009.4
20260509040104 65 201 0.0 1.0 0.00 0.02 0.02 87 1009.3
20260509034549 66 201 0.0 0.0 0.00 0.02 0.02 86 1009.3
20260509033043 67 201 0.0 2.0 0.00 0.02 0.02 86 1009.4
20260509031542 67 201 1.0 3.0 0.00 0.02 0.02 86 1009.4
20260509030046 67 201 2.0 3.0 0.00 0.02 0.02 86 1009.3
20260509024544 68 201 1.0 3.0 0.00 0.02 0.02 84 1009.1
20260509023044 69 201 0.0 0.0 0.00 0.02 0.02 82 1008.9
20260509021544 70 201 0.0 2.0 0.00 0.02 0.02 81 1008.5
20260509020041 70 201 1.0 3.0 0.00 0.02 0.02 80 1008.2
20260509014538 71 201 1.0 4.0 0.00 0.02 0.02 79 1008.1
20260509013043 72 201 2.0 4.0 0.00 0.02 0.02 78 1007.9
20260509011551 73 201 2.0 5.0 0.00 0.02 0.02 77 1007.8
20260509010042 74 201 2.0 4.0 0.00 0.02 0.02 76 1007.8
20260509004543 74 201 3.0 5.0 0.00 0.02 0.02 74 1007.8
20260509003038 75 201 2.0 5.0 0.00 0.02 0.02 73 1007.7
20260509001536 76 200 2.0 4.0 0.00 0.02 0.02 71 1007.8
20260509000036 76 200 1.0 3.0 0.00 0.02 0.02 69 1007.7
20260508234534 77 200 2.0 4.0 0.00 0.02 0.02 67 1007.7
20260508233033 77 210 0.0 3.0 0.00 0.02 0.02 69 1007.6
20260508231534 77 223 4.0 8.0 0.00 0.02 0.02 69 1007.5
20260508230033 77 144 3.0 8.0 0.00 0.02 0.02 68 1007.4
20260508224531 77 209 4.0 9.0 0.00 0.03 0.02 68 1007.3
20260508223039 77 219 3.0 7.0 0.00 0.03 0.02 69 1007.5
20260508221527 77 196 4.0 11.0 0.00 0.03 0.02 69 1007.7
20260508220025 76 233 5.0 10.0 0.00 0.03 0.02 70 1007.9
20260508214522 76 170 4.0 9.0 0.00 0.03 0.02 72 1008.1
20260508213030 75 213 3.0 7.0 0.00 0.03 0.02 74 1008.3
20260508211519 75 230 3.0 9.0 0.00 0.03 0.02 74 1008.4
20260508210016 74 205 4.0 11.0 0.00 0.03 0.02 75 1008.8
20260508204520 73 200 3.0 13.0 0.00 0.05 0.02 78 1009.0
20260508203009 73 218 4.0 7.0 0.00 0.05 0.02 78 1009.5
20260508201508 73 238 4.0 11.0 0.00 0.05 0.02 78 1009.7
20260508200004 72 237 5.0 10.0 0.00 0.05 0.02 79 1010.0
20260508194501 71 259 2.0 4.0 0.00 0.22 0.02 80 1010.2
20260508193001 71 259 1.0 6.0 0.00 0.22 0.02 80 1010.3
20260508191602 71 259 4.0 7.0 0.00 0.22 0.02 80 1010.4
20260508190058 71 256 2.0 6.0 0.00 0.22 0.02 81 1010.5
20260508184608 71 245 3.0 8.0 0.00 0.22 0.02 81 1010.7
20260508183055 71 224 3.0 7.0 0.00 0.22 0.02 80 1010.6